Weather Roundup
Issued by NWS Chicago, IL

Home | Current Version | Previous Version | Graphics & Text | Print | Product List | Glossary On
Versions: 1 2 3 4 5 6 7 8 9 10 11 12 13 14 15 16 17 18 19 20 21 22 23 24 25 26 27 28 29 30 31 32 33 34 35 36 37 38 39 40 41 42 43 44 45 46 47 48 49 50
000
NZUS59 KLOT 032110
HRRLOT

CHICAGO AREA WEATHER ROUNDUP
NATIONAL WEATHER SERVICE CHICAGO/ROMEOVILLE IL
300 PM CST TUE MAR 03 2015

NOTE: "FAIR" INDICATES FEW OR NO CLOUDS BELOW 12,000 FEET WITH NO
SIGNIFICANT WEATHER AND/OR OBSTRUCTIONS TO VISIBILITY.

* THESE STATIONS ARE NOT UNDER NWS QUALITY CONTROL. THEY ALSO MAY NOT
  REPORT WEATHER SUCH AS PRECIPITATION OR FOG.

ILZ005-006-012>014-019>023-032200-
NORTHEAST ILLINOIS

CITY           SKY/WX    TMP DP  RH WIND       PRES   REMARKS
OHARE          CLOUDY    34  30  85 W17G28    29.65R WCI  23
MIDWAY         DRIZZLE   36  34  92 W12G26    29.66R
AURORA         CLOUDY    35  30  82 W22G29    29.66R WCI  23
LANSING*       CLOUDY    35  33  93 W17G25    29.66R FOG     WCI  25
JOLIET*        CLOUDY    35  32  90 W12G20    29.68R WCI  26
WAUKEGAN       CLOUDY    33  30  88 W12G21    29.62R WCI  24
DUPAGE AIRPORT CLOUDY    34  30  85 W22G32    29.65R WCI  22
WHEELING       CLOUDY    34  30  85 W14G25    29.66R WCI  25
KANKAKEE*      CLOUDY    36  34  93 SW17G24   29.70R
MORRIS*        CLOUDY    35  33  94 W16       29.68R WCI  25
LEWIS AIRPORT* CLOUDY    34  32  92 W17G26    29.67R WCI  24
NORTHERLY IS     N/A     36  32  85 W10         N/A
$$

WIZ051-052-058>065-066-070>072-032200-
SOUTHEAST WISCONSIN

CITY           SKY/WX    TMP DP  RH WIND       PRES   REMARKS
MILWAUKEE      CLOUDY    33  26  75 W12       29.60R WCI  24
KENOSHA*       CLOUDY    33  28  81 W20G25    29.61R WCI  21
RACINE*        CLOUDY    33  27  78 W14G21    29.62R WCI  23
BURLINGTON     CLOUDY    31  27  87 W10       29.62R WCI  22
WAUKESHA       CLOUDY    28  27  93 W12G23    29.59S WCI  18
WEST BEND      CLOUDY    30  25  80 W20G25    29.57R WCI  18
$$

INZ001>003-010>013-019-020-032200-
NORTHWEST INDIANA

CITY           SKY/WX    TMP DP  RH WIND       PRES   REMARKS
GARY*          CLOUDY    37  32  81 W17G29    29.67R FOG
MICHIGAN CITY* NOT AVBL
RENSSELAER*    NOT AVBL
VALPARAISO     CLOUDY    35  35 100 W22G29    29.66R FOG     WCI  23
$$

LMZ740>746-032200-
SOUTHERN LAKE MICHIGAN

STATION/POSITION TIME  SKY/WX   TEMP WIND        PRES    VSBY
                                AIR  DIR/SP/G
                 (UTC)          (F)  (DEG/KT/KT) (MB)    (MI)
HARRISON CRIB    2100            35  250/ 23/ 28   N/A
BURNHAM HARBOR   2100            36  260/ 13/ 15   N/A
CALUMET HARBOR   2100            36  240/ 11/ 19 1003.0R
BURNS HARBOR     NOT AVBL
MICHIGAN CITY    2100            34  220/ 20/ 23   N/A
$$

ABBREVIATIONS USED IN REMARKS
   TC - TEMPERATURE IN CELSIUS
  WCI - WIND CHILL INDEX
   HX - HEAT INDEX
  VSB - VISIBILITY
$$



USA.gov is the U.S. government's official web portal to all federal, state and local government web resources and services.